Columbia, MO

2:06 AM CDT on October 17, 2017 (GMT -0500)
Columbia Regional

Weather History for KCOU - May, 2015

Change the Weather History Date:

Thursday, May 7, 2015

  Actual Average Record
Temperature  
Mean Temperature 73 °F 62 °F  
Max Temperature 82 °F 72 °F 90 °F (1965)
Min Temperature 64 °F 51 °F 33 °F (1931)
Degree Days  
Heating Degree Days 0 5  
Month to date heating degree days 9 38  
Since 1 July heating degree days 4868 4941  
Cooling Degree Days 8 1  
Month to date cooling degree days 33 7  
Year to date cooling degree days 48 32  
Growing Degree Days 23 (Base 50)    
Moisture  
Dew Point 59 °F    
Average Humidity 72    
Maximum Humidity 93    
Minimum Humidity 51    
Precipitation  
Precipitation T in 0.17 in 3.17 in (1943)
Month to date precipitation 0.12 1.19  
Year to date precipitation 7.30 12.76  
Snow  
Snow 0.00 in 0.00 in 0.00 in (2015)
Month to date snowfall 0.0 0.0  
Since 1 July snowfall 12.0 18.0  
Snow Depth 0.00 in    
Sea Level Pressure  
Sea Level Pressure 29.93 in    
Wind  
Wind Speed 11 mph (SSE)    
Max Wind Speed 23 mph    
Max Gust Speed 28 mph    
Visibility 10 miles    
Events Rain    
T = Trace of Precipitation, MM = Missing Value Source: NWS Daily Summary

Daily Weather History Graph

Daily Weather History Graph

Search for Another Location

Airport or City:

Trip Planner

Search our weather history database for the weather conditions in past years. The results will help you decide how hot, cold, wet, or windy it might be!

Date:

Astronomy

May. 07, 2015 Rise Set
Actual Time 6:04 AM CDT 8:06 PM CDT
Civil Twilight 5:35 AM CDT 8:36 PM CDT
Nautical Twilight 4:59 AM CDT 9:11 PM CDT
Astronomical Twilight 4:21 AM CDT 9:50 PM CDT
Moon 11:31 PM CDT (5/7) 8:55 AM CDT (5/7)
Length of Visible Light 15h 00m
Length of Day
14h 02m
Waning Gibbous, 87% of the Moon is Illuminated
May 7
Waning Gibbous
May 11
Last Quarter
May 17
New
May 25
First Quarter
Jun 2
Full

Hourly Weather History & Observations

Time (CDT) Temp. Heat Index Dew Point Humidity Pressure Visibility Wind Dir Wind Speed Gust Speed Precip Events Conditions
12:54 AM 66.9 °F - 55.0 °F 66% 29.95 in 10.0 mi SSE 10.4 mph - N/A   Clear
1:54 AM 66.0 °F - 54.0 °F 65% 29.96 in 10.0 mi SE 6.9 mph - N/A   Clear
2:54 AM 64.9 °F - 54.0 °F 68% 29.94 in 10.0 mi SE 6.9 mph - N/A   Clear
3:54 AM 64.4 °F - 53.6 °F 68% 29.95 in 10.0 mi SSE 12.7 mph - N/A   Clear
4:54 AM 64.9 °F - 53.1 °F 65% 29.93 in 10.0 mi SSE 12.7 mph - N/A   Clear
5:54 AM 64.0 °F - 53.1 °F 67% 29.93 in 10.0 mi SSE 9.2 mph - N/A   Mostly Cloudy
6:54 AM 64.9 °F - 54.0 °F 68% 29.94 in 10.0 mi SE 10.4 mph - N/A   Scattered Clouds
7:54 AM 66.0 °F - 54.0 °F 65% 29.94 in 10.0 mi SSE 13.8 mph - N/A   Scattered Clouds
8:54 AM 71.1 °F - 57.0 °F 61% 29.94 in 10.0 mi South 13.8 mph - N/A   Clear
9:54 AM 75.0 °F - 60.1 °F 60% 29.95 in 10.0 mi South 12.7 mph 25.3 mph N/A   Clear
10:54 AM 78.1 °F - 62.1 °F 58% 29.94 in 10.0 mi SSW 17.3 mph - N/A   Clear
11:54 AM 79.0 °F - 63.0 °F 58% 29.94 in 10.0 mi South 17.3 mph 21.9 mph N/A   Clear
12:54 PM 78.1 °F - 63.0 °F 60% 29.94 in 10.0 mi South 17.3 mph 20.7 mph N/A   Clear
1:54 PM 82.0 °F 83.1 °F 63.0 °F 52% 29.92 in 10.0 mi South 16.1 mph - N/A   Clear
2:54 PM 81.0 °F 81.7 °F 61.0 °F 50% 29.92 in 10.0 mi SW 18.4 mph 21.9 mph N/A   Mostly Cloudy
3:54 PM 77.0 °F - 62.6 °F 61% 29.93 in 10.0 mi West 10.4 mph - N/A Rain Light Rain
4:54 PM 79.0 °F - 57.9 °F 48% 29.87 in 10.0 mi South 8.1 mph - 0.00 in   Scattered Clouds
5:54 PM 75.9 °F - 62.1 °F 62% 29.88 in 10.0 mi South 9.2 mph - 0.00 in   Mostly Cloudy
6:54 PM 70.0 °F - 63.0 °F 78% 29.90 in 10.0 mi SE 9.2 mph - N/A   Mostly Cloudy
7:54 PM 68.0 °F - 64.0 °F 87% 29.91 in 10.0 mi SSE 5.8 mph - N/A   Overcast
8:54 PM 64.9 °F - 63.0 °F 93% 29.90 in 10.0 mi SE 6.9 mph - N/A   Clear
9:54 PM 64.9 °F - 63.0 °F 93% 29.93 in 10.0 mi East 5.8 mph - N/A   Clear
10:54 PM 64.0 °F - 63.0 °F 96% 29.94 in 10.0 mi ESE 4.6 mph - N/A   Clear
11:54 PM 64.0 °F - 62.1 °F 93% 29.93 in 10.0 mi SSE 6.9 mph - N/A   Clear